• In Uzbekistan
  • List of Countries
  • For 7 days
  • Water Temperature
  • Satellite Maps
  • Weather Map
  • Weather Widgets
  • user-avatar
    Login

    Hourly Weather Perth

    Today, 3 December, Saturday

    Time Temperature Precipitation Wind Pressure Humidity
    00:00 +13°C° 0 mm 3 mps 754 mmHg 89%
    01:00 +12°C° 0 mm 3 mps 754 mmHg 90%
    02:00 +12°C° 0 mm 3 mps 754 mmHg 93%
    03:00 +12°C° 0 mm 3 mps 754 mmHg 94%
    04:00 +12°C° 0 mm 3 mps 754 mmHg 95%
    05:00 +12°C° 0 mm 3 mps 754 mmHg 96%
    06:00 +14°C° 0 mm 3 mps 754 mmHg 83%
    07:00 +17°C° 0 mm 3 mps 754 mmHg 70%
    08:00 +20°C° 0 mm 3 mps 755 mmHg 57%
    09:00 +22°C° 0 mm 4 mps 754 mmHg 50%
    10:00 +23°C° 0 mm 4 mps 754 mmHg 44%
    11:00 +26°C° 0 mm 5 mps 754 mmHg 37%
    12:00 +26°C° 0 mm 5 mps 754 mmHg 39%
    13:00 +26°C° 0 mm 5 mps 754 mmHg 41%
    14:00 +25°C° 0 mm 5 mps 754 mmHg 48%
    15:00 +23°C° 0 mm 5 mps 754 mmHg 54%
    16:00 +22°C° 0 mm 5 mps 754 mmHg 59%
    17:00 +22°C° 0 mm 5 mps 754 mmHg 65%
    18:00 +21°C° 0.1 mm 4 mps 755 mmHg 71%
    19:00 +20°C° 0.1 mm 4 mps 755 mmHg 78%
    20:00 +19°C° 0 mm 5 mps 756 mmHg 84%
    21:00 +18°C° 0 mm 4 mps 756 mmHg 85%
    22:00 +18°C° 0 mm 4 mps 756 mmHg 86%
    23:00 +17°C° 0 mm 4 mps 756 mmHg 86%

    Tomorrow, 4 December, Sunday

    Time Temperature Precipitation Wind Pressure Humidity
    00:00 +15°C° 0 mm 4 mps 757 mmHg 87%
    01:00 +16°C° 0 mm 3 mps 757 mmHg 87%
    02:00 +14°C° 0 mm 3 mps 757 mmHg 87%
    03:00 +13°C° 0 mm 3 mps 757 mmHg 88%
    04:00 +12°C° 0 mm 3 mps 758 mmHg 88%
    05:00 +11°C° 0 mm 3 mps 758 mmHg 89%
    06:00 +13°C° 0 mm 3 mps 758 mmHg 76%
    07:00 +16°C° 0 mm 3 mps 759 mmHg 63%
    08:00 +18°C° 0 mm 3 mps 759 mmHg 50%
    09:00 +20°C° 0 mm 3 mps 759 mmHg 42%
    10:00 +24°C° 0 mm 3 mps 759 mmHg 33%
    11:00 +26°C° 0 mm 3 mps 758 mmHg 24%
    12:00 +27°C° 0 mm 3 mps 758 mmHg 24%
    13:00 +28°C° 0 mm 4 mps 757 mmHg 23%
    14:00 +29°C° 0 mm 5 mps 757 mmHg 23%
    15:00 +28°C° 0 mm 5 mps 757 mmHg 29%
    16:00 +26°C° 0 mm 5 mps 756 mmHg 34%
    17:00 +24°C° 0 mm 6 mps 756 mmHg 40%
    18:00 +21°C° 0 mm 6 mps 757 mmHg 49%
    19:00 +19°C° 0 mm 5 mps 757 mmHg 58%
    20:00 +16°C° 0 mm 5 mps 757 mmHg 67%
    21:00 +15°C° 0 mm 5 mps 757 mmHg 70%
    22:00 +14°C° 0 mm 5 mps 758 mmHg 74%
    23:00 +14°C° 0 mm 5 mps 758 mmHg 77%

    Day after tomorrow, 5 December, Monday

    Time Temperature Precipitation Wind Pressure Humidity
    00:00 +13°C° 0 mm 4 mps 758 mmHg 77%
    01:00 +13°C° 0 mm 4 mps 758 mmHg 77%
    02:00 +12°C° 0 mm 4 mps 758 mmHg 77%
    03:00 +12°C° 0 mm 4 mps 758 mmHg 78%
    04:00 +12°C° 0 mm 4 mps 758 mmHg 80%
    05:00 +12°C° 0 mm 4 mps 758 mmHg 81%
    06:00 +14°C° 0 mm 4 mps 758 mmHg 72%
    07:00 +17°C° 0 mm 4 mps 759 mmHg 63%
    08:00 +19°C° 0 mm 3 mps 759 mmHg 54%
    09:00 +21°C° 0 mm 4 mps 758 mmHg 48%
    10:00 +23°C° 0 mm 4 mps 758 mmHg 41%
    11:00 +26°C° 0 mm 5 mps 758 mmHg 34%
    12:00 +27°C° 0 mm 5 mps 758 mmHg 32%
    13:00 +27°C° 0 mm 6 mps 757 mmHg 30%
    14:00 +28°C° 0 mm 6 mps 757 mmHg 28%
    15:00 +27°C° 0 mm 6 mps 757 mmHg 32%
    16:00 +24°C° 0 mm 7 mps 757 mmHg 37%
    17:00 +23°C° 0 mm 7 mps 757 mmHg 41%
    18:00 +21°C° 0 mm 6 mps 758 mmHg 52%
    19:00 +19°C° 0 mm 5 mps 758 mmHg 62%
    20:00 +16°C° 0 mm 5 mps 759 mmHg 73%
    21:00 +15°C° 0 mm 5 mps 759 mmHg 78%
    22:00 +15°C° 0 mm 5 mps 760 mmHg 83%
    23:00 +14°C° 0 mm 4 mps 760 mmHg 87%

    6 December, Tuesday

    Time Temperature Precipitation Wind Pressure Humidity
    00:00 +14°C° 0 mm 4 mps 760 mmHg 89%
    01:00 +13°C° 0 mm 4 mps 760 mmHg 90%
    02:00 +12°C° 0 mm 3 mps 760 mmHg 91%
    03:00 +12°C° 0 mm 3 mps 760 mmHg 93%
    04:00 +11°C° 0 mm 3 mps 760 mmHg 94%
    05:00 +11°C° 0 mm 3 mps 761 mmHg 95%
    06:00 +14°C° 0 mm 3 mps 761 mmHg 81%
    07:00 +18°C° 0 mm 2 mps 761 mmHg 68%
    08:00 +21°C° 0 mm 2 mps 761 mmHg 54%
    09:00 +24°C° 0 mm 2 mps 761 mmHg 46%
    10:00 +27°C° 0 mm 3 mps 761 mmHg 37%
    11:00 +30°C° 0 mm 3 mps 761 mmHg 28%
    12:00 +30°C° 0 mm 4 mps 760 mmHg 28%
    13:00 +30°C° 0 mm 5 mps 759 mmHg 28%
    14:00 +30°C° 0 mm 5 mps 759 mmHg 28%
    15:00 +28°C° 0 mm 5 mps 758 mmHg 29%
    16:00 +27°C° 0 mm 6 mps 758 mmHg 31%
    17:00 +26°C° 0 mm 6 mps 758 mmHg 32%
    18:00 +23°C° 0 mm 5 mps 759 mmHg 42%
    19:00 +20°C° 0 mm 5 mps 759 mmHg 53%
    20:00 +17°C° 0 mm 5 mps 760 mmHg 63%
    21:00 +17°C° 0 mm 4 mps 760 mmHg 72%
    22:00 +15°C° 0 mm 4 mps 760 mmHg 81%
    23:00 +14°C° 0 mm 4 mps 760 mmHg 89%

    7 December, Wednesday

    Time Temperature Precipitation Wind Pressure Humidity
    00:00 +14°C° 0 mm 4 mps 760 mmHg 92%
    01:00 +13°C° 0 mm 3 mps 760 mmHg 94%
    02:00 +13°C° 0 mm 3 mps 760 mmHg 96%
    03:00 +12°C° 0 mm 3 mps 760 mmHg 97%
    04:00 +12°C° 0 mm 3 mps 760 mmHg 97%
    05:00 +12°C° 0 mm 3 mps 760 mmHg 97%
    06:00 +14°C° 0 mm 3 mps 761 mmHg 86%
    07:00 +18°C° 0 mm 3 mps 761 mmHg 74%
    08:00 +20°C° 0 mm 3 mps 762 mmHg 63%
    09:00 +22°C° 0 mm 4 mps 761 mmHg 56%
    10:00 +25°C° 0 mm 4 mps 761 mmHg 50%
    11:00 +27°C° 0 mm 4 mps 761 mmHg 44%
    12:00 +28°C° 0 mm 5 mps 761 mmHg 40%
    13:00 +28°C° 0 mm 5 mps 760 mmHg 37%
    14:00 +29°C° 0 mm 5 mps 760 mmHg 33%
    15:00 +29°C° 0 mm 5 mps 760 mmHg 35%
    16:00 +28°C° 0 mm 6 mps 759 mmHg 37%
    17:00 +27°C° 0 mm 6 mps 759 mmHg 39%
    18:00 +25°C° 0 mm 5 mps 760 mmHg 47%
    19:00 +22°C° 0 mm 5 mps 761 mmHg 54%
    20:00 +19°C° 0 mm 4 mps 761 mmHg 61%
    21:00 +19°C° 0 mm 4 mps 761 mmHg 60%
    22:00 +18°C° 0 mm 4 mps 762 mmHg 58%
    23:00 +18°C° 0 mm 4 mps 762 mmHg 57%

    8 December, Thursday

    Time Temperature Precipitation Wind Pressure Humidity
    00:00 +16°C° 0 mm 5 mps 762 mmHg 57%
    01:00 +16°C° 0 mm 5 mps 762 mmHg 56%
    02:00 +16°C° 0 mm 5 mps 761 mmHg 56%
    03:00 +15°C° 0 mm 5 mps 762 mmHg 58%
    04:00 +14°C° 0 mm 5 mps 762 mmHg 61%
    05:00 +14°C° 0 mm 5 mps 762 mmHg 64%
    06:00 +15°C° 0 mm 5 mps 762 mmHg 58%
    07:00 +17°C° 0 mm 5 mps 763 mmHg 52%
    08:00 +20°C° 0 mm 5 mps 763 mmHg 45%
    09:00 +22°C° 0 mm 4 mps 762 mmHg 39%
    10:00 +26°C° 0 mm 4 mps 762 mmHg 33%
    11:00 +29°C° 0 mm 3 mps 761 mmHg 26%
    12:00 +31°C° 0 mm 3 mps 761 mmHg 23%
    13:00 +35°C° 0 mm 3 mps 760 mmHg 19%
    14:00 +37°C° 0 mm 3 mps 759 mmHg 15%
    15:00 +36°C° 0 mm 3 mps 759 mmHg 16%
    16:00 +35°C° 0 mm 4 mps 759 mmHg 17%
    17:00 +35°C° 0 mm 4 mps 758 mmHg 18%
    18:00 +30°C° 0 mm 4 mps 759 mmHg 25%
    19:00 +26°C° 0 mm 4 mps 759 mmHg 33%
    20:00 +22°C° 0 mm 4 mps 759 mmHg 40%
    21:00 +22°C° 0 mm 3 mps 759 mmHg 37%
    22:00 +21°C° 0 mm 3 mps 759 mmHg 35%
    23:00 +21°C° 0 mm 3 mps 759 mmHg 32%
    Show more